User: anonymous   Login
Location: *
(50.6089°N, 2.2719°E)
Time: 05:45:38
(UTC+00:00)
Language:

STARLINK-24 - Orbit

View from above orbital plane
View from above orbital plane
View from above satellite
View from above satellite

Ground track
Ground track

The orbit data is extracted from the following two-line orbital elements,

1 44238U 19029D   19339.50001157  .00033974  00000-0  19581-2 0  9998
2 44238  52.9981  14.0350 0001445  93.2866 269.4463 15.12106282 29539
Epoch (UTC): 05 December 2019 12:00:01
Eccentricity: 0.0001445
inclination: 52.9981°
perigee height: 529 km
apogee height: 531 km
right ascension of ascending node: 14.0350°
argument of perigee: 93.2866°
revolutions per day: 15.12106282
mean anomaly at epoch: 269.4463°
orbit number at epoch: 2953

The dashed part of the orbit path shows where the satellite is in the earth's shadow,  

DLR